Location: Newark
(44.3248°N, 23.7839°E)
Time: 21:59:45
(UTC+00:00)

PCSat - Pass Details

Date: 13 April 2024
Orbit: 783 x 792 km, 67.1° (Epoch: 20 May)

Event Time Altitude Azimuth Distance (km) Brightness Sun altitude
Rises 22:12:17 0° 282° (WNW) 3,283 13.0 -36.1°
Reaches altitude 10° 22:17:12 10° 322° (NW) 2,361 12.6 -36.2°
Maximum altitude 22:18:15 11° 333° (NNW) 2,326 12.6 -36.2°
Drops below altitude 10° 22:19:18 10° 344° (NNW) 2,363 12.7 -36.2°
Sets 22:24:15 0° 24° (NNE) 3,299 13.6 -36.2°
